Location: Luxembourg
(49.6117°N, 6.1300°E)
Time: 18:32:18
(UTC+01:00)

N. Korean satellite - Pass Details

Date: 28 January 2019
Orbit: 457 x 510 km, 97.2° (Epoch: 18 February)

Event Time Altitude Azimuth Distance (km) Brightness Sun altitude
Rises 07:14:30 0° 9° (N) 2,613 10.2 -9.7°
Reaches altitude 10° 07:16:37 10° 6° (N) 1,716 9.2 -9.4°
Maximum altitude 07:20:15 59° 287° (WNW) 577 6.6 -8.8°
Drops below altitude 10° 07:23:48 10° 207° (SSW) 1,672 9.2 -8.3°
Sets 07:25:51 0° 204° (SSW) 2,538 10.2 -8.0°
